Flag for Canada Weather past 2 weeks in Richmond Hill, Ontario, Canada

Now
82 °F

Partly sunny.


Feels Like: 85 °F
Forecast: N/A
Wind: 13 mph from South

Location: Toronto Buttonville

Current Time: Aug 30, 2014 at 6:20:22 PM

Latest Report: Aug 30, 2014 at 5:00 PM


Visibility: 15 mi

Pressure: 29.91 "Hg

Humidity: 58%

Dew point: 66 °F

Location of Richmond HillLocation

Historic Weather in Richmond Hill — Graph

°F

Richmond Hill temperature yesterday

Maximum temperature yesterday: 72 °F (at 5:00 PM)
Minimum temperature yesterday: 52 °F (at 4:00 AM)
Average temperature yesterday: 61 °F

Past Weeks' High & Low Weather Summary

 TemperatureHumidityPressure
High88 °F (Aug 26, 6:00 PM)100% (Aug 17, 6:00 AM)30.21 "Hg (Aug 17, 6:00 AM)
Low50 °F (Aug 19, 4:00 AM)38% (Aug 15, 5:00 PM)29.78 "Hg (Aug 16, 4:00 PM)
Average66 °F76%30.01 "Hg
* Reported Aug 15 5:00 PM — Aug 30 5:00 PM, Richmond Hill, Weather by CustomWeather, © 2014

Note: Actual official high and low records may vary slightly from our data, if they occured in-between our weather recording intervals... More about our weather records

Advertising

Richmond Hill weather history for previous 24 hours

 ConditionsComfort  
Time TempWeatherWind HumidityBarometerVisibility
5:00 PM
Aug 30
82 °FPartly sunny.13 mph58%29.91 "Hg15 mi
4:00 PM81 °FPartly sunny.12 mph62%29.93 "Hg15 mi
3:00 PM82 °FPartly sunny.13 mph58%29.95 "Hg15 mi
2:00 PM82 °FPartly sunny.13 mph55%29.97 "Hg15 mi
1:00 PM79 °FScattered clouds.8 mph65%29.99 "Hg15 mi
12:00 PM73 °FScattered clouds.7 mph74%30.01 "Hg15 mi
11:00 AM70 °FPartly sunny.6 mph78%30.03 "Hg15 mi
10:46 AMN/ALight rain.10 mphN/AN/A15 mi
10:00 AM72 °FPartly sunny.5 mph69%30.03 "Hg15 mi
9:00 AM68 °FPartly sunny.7 mph78%30.05 "Hg15 mi
8:00 AM66 °FPartly sunny.5 mph83%30.05 "Hg15 mi
7:00 AM61 °FPassing clouds.No wind94%30.05 "Hg15 mi
6:00 AM61 °FPartly cloudy.No wind94%30.05 "Hg15 mi
5:00 AM63 °FPartly cloudy.No wind88%30.05 "Hg15 mi
4:00 AM61 °FPartly cloudy.No wind94%30.06 "Hg15 mi
3:00 AM61 °FPartly cloudy.2 mph94%30.08 "Hg15 mi
2:00 AM63 °FPartly cloudy.2 mph83%30.09 "Hg15 mi
1:00 AM63 °FPartly cloudy.3 mph83%30.11 "Hg15 mi
12:00 AM63 °FPassing clouds.5 mph83%30.11 "Hg15 mi
11:00 PM
Aug 29
63 °FPassing clouds.5 mph83%30.11 "Hg15 mi
10:00 PM64 °FPassing clouds.7 mph73%30.12 "Hg15 mi
9:00 PM64 °FPassing clouds.8 mph73%30.12 "Hg15 mi
8:00 PM64 °FBroken clouds.8 mph64%30.12 "Hg15 mi
7:00 PM66 °FPartly sunny.9 mph64%30.12 "Hg15 mi
6:00 PM70 °FPartly sunny.8 mph57%30.13 "Hg15 mi
Weather by CustomWeather, © 2014

See weather overviewHow to use our weather pages